Regional Weather Roundup
Issued by NWS

Home | Current Version | Previous Version | Text Only | Print | Product List | Glossary On
Versions: 1 2 3 4 5 6 7 8 9 10 11 12 13 14 15 16 17 18 19 20 21 22 23 24 25 26 27 28 29 30 31 32 33 34 35 36 37 38 39 40 41 42 43 44 45 46 47 48 49 50
000
ASUS44 KOUN 130000
RWROK

WEATHER ROUNDUP FOR OKLAHOMA
NATIONAL WEATHER SERVICE NORMAN OK
600 PM CST TUE DEC 12 2017

NOTE: "FAIR" INDICATES FEW OR NO CLOUDS BELOW 12,000 FEET WITH NO
      SIGNIFICANT WEATHER AND/OR OBSTRUCTIONS TO VISIBILITY.

OKZ001>007-009>012-014-015-017-130100-
NORTHWEST OKLAHOMA AND THE PANHANDLE

CITY           SKY/WX    TMP DP  RH WIND       PRES   REMARKS
GAGE           CLEAR     47  16  29 S10       30.14F
6HR MIN TEMP:  44; 6HR MAX TEMP:  61;

GUYMON         CLEAR     57  14  18 S3        30.13F
$$

OKZ016-021>023-033>039-044-045-130100-
SOUTHWEST OKLAHOMA

CITY           SKY/WX    TMP DP  RH WIND       PRES   REMARKS
LAWTON/REGL    CLEAR     47  28  47 SW5       30.24F
6HR MIN TEMP:  47; 6HR MAX TEMP:  57;

LAWTON/FT SILL CLEAR     49  30  47 SW3       30.23F
FREDERICK      CLEAR     46  24  42 S9        30.22F
CLINTON        CLEAR     46  22  38 S10       30.20F
HOBART         CLEAR     44  25  47 S12       30.22F
$$

OKZ018>020-024>031-130100-
CENTRAL OKLAHOMA

CITY           SKY/WX    TMP DP  RH WIND       PRES   REMARKS
OKLAHOMA CITY  CLEAR     39  25  57 S7        30.21F WCI  34
6HR MIN TEMP:  39; 6HR MAX TEMP:  49;

OKC/WILEY POST CLEAR     39  27  62 S9        30.21F WCI  33
STILLWATER     CLEAR     41  26  55 S5        30.20F
GUTHRIE        CLEAR     41  28  60 S5        30.20F
$$

OKZ008-013-054>072-130100-
NORTHEAST OKLAHOMA

CITY           SKY/WX    TMP DP  RH WIND       PRES   REMARKS
TULSA          PTCLDY    43  27  53 W5        30.21F
6HR MIN TEMP:  42; 6HR MAX TEMP:  49;

TULSA/JONES    CLEAR     40  26  57 CALM      30.22F
PONCA CITY     CLEAR     44  28  53 S5        30.18F
BARTLESVILLE   CLEAR     33  24  69 CALM      30.21F
MUSKOGEE       CLEAR     41  12  30 CALM      30.23F
$$

OKZ032-040>043-046>053-073>077-130100-
SOUTH CENTRAL/SOUTHEAST OKLAHOMA

CITY           SKY/WX    TMP DP  RH WIND       PRES   REMARKS
MCALESTER      CLEAR     42  22  44 CALM      30.24F
$$





USA.gov is the U.S. government's official web portal to all federal, state and local government web resources and services.